Temp
16 17 18 19 20 19 20 22 23 24 25 24 24 24 25 26 26 26 26 25 25 24 22 19 16 13 11 10 11 12 10 10 11 10 10 10 11 10 11 11 11 11 10 9
18 17 19 20 20 19 19 20 21 23 24 24 23 23 24 25 26 26 26 26 25 24 21 18 15 13 10 10 11 12 10 10 10 10 10 10 10 10 10 11 11 11 10 9
17 20 20 17 18 19 19 19 20 21 22 24 23 22 23 25 25 25 25 25 24 24 22 19 16 14 11 10 10 12 11 10 10 10 10 10 10 10 10 11 11 10 10 9
18 19 19 18 18 19 19 20 20 20 20 20 23 21 24 25 26 26 25 25 24 24 23 20 17 14 12 10 10 10 11 10 10 10 10 10 10 10 10 10 10 10 9 8
17 17 17 18 18 18 18 20 19 19 20 20 21 21 23 24 24 25 26 25 25 24 23 20 18 15 13 11 10 10 10 10 10 10 10 10 10 11 11 10 10 9 9 9
17 18 17 17 19 19 19 19 19 19 19 18 20 21 22 24 25 26 26 26 25 24 22 20 18 16 13 11 11 10 10 10 10 10 10 11 11 10 10 10 9 9 9 9
17 17 18 16 16 18 17 17 16 17 18 18 22 21 22 24 26 26 26 25 24 23 22 20 18 17 14 11 10 10 10 10 10 10 10 10 10 10 10 9 9 9 9 9
16 17 18 17 16 17 17 16 16 16 18 19 22 21 23 25 25 25 25 24 24 23 21 20 19 17 16 12 11 9 9 9 10 10 9 9 9 9 9 9 9 9 9 9
15 16 18 17 17 17 18 16 19 17 18 16 18 21 23 23 23 25 25 24 24 23 22 20 19 18 16 14 12 11 10 10 9 9 9 9 9 9 9 9 10 9 9 10
14 13 17 17 17 17 17 19 17 18 14 16 19 20 21 23 22 24 25 25 25 24 22 21 20 18 17 15 13 11 12 11 10 9 9 9 9 9 9 9 10 10 9 9
14 13 16 16 16 17 15 16 17 19 18 17 17 19 23 24 22 23 25 24 25 24 23 21 20 19 17 15 14 12 12 12 11 10 9 9 9 9 9 10 10 10 9 9
13 12 12 15 18 17 17 18 18 16 16 18 18 19 23 23 23 22 24 24 24 23 23 22 21 19 18 16 15 13 12 13 12 11 10 9 9 9 9 9 9 10 10 10
11 12 12 14 16 17 15 17 18 18 18 17 17 18 23 23 23 23 21 23 23 22 22 21 20 20 18 17 15 14 12 12 12 12 11 11 10 10 10 10 9 9 9 9
9 10 12 13 13 11 14 15 16 16 15 16 18 19 21 22 22 22 22 22 22 23 22 21 21 20 19 17 16 15 13 12 12 12 11 11 11 10 10 10 10 10 9 9
10 9 11 13 13 14 13 14 15 15 16 15 17 18 20 21 21 22 21 21 21 23 23 22 21 20 19 18 17 16 14 12 12 12 12 11 11 11 10 10 10 9 9 9
11 9 11 11 13 13 13 14 15 15 16 17 17 17 20 20 19 20 20 21 21 22 23 23 22 21 20 19 18 17 16 14 13 12 12 12 11 11 10 10 10 9 9 9
6 8 9 9 12 13 12 14 15 16 17 17 16 18 20 19 20 20 19 20 21 22 22 22 22 22 21 19 18 17 16 15 14 13 13 12 12 11 11 10 10 9 9 9
6 7 7 8 10 9 14 17 17 16 17 17 18 19 19 19 19 20 20 20 21 22 22 22 21 21 20 19 18 17 16 15 14 13 13 13 12 12 11 11 10 9 9 9
8 7 7 7 9 12 13 15 15 15 15 18 18 17 16 17 18 20 21 21 21 20 18 18 18 19 18 18 18 16 16 14 13 13 13 12 12 11 11 10 9 9 9 8
9 8 7 7 8 9 13 14 11 14 12 14 14 13 13 14 15 19 19 20 16 15 15 15 15 14 14 15 15 15 15 13 12 12 10 10 10 9 9 9 9 8 8 8
8 6 6 7 7 10 13 14 12 11 10 10 11 13 12 12 12 13 13 11 12 12 11 10 11 11 10 11 11 12 11 10 9 9 9 9 9 9 8 8 7 6 6 5
7 6 6 7 6 7 13 12 10 9 8 9 11 12 12 10 9 10 8 7 7 7 7 7 6 7 8 8 7 8 8 8 8 8 8 7 7 7 6 5 4 4 3 3
7 10 8 9 10 12 12 10 8 6 6 8 10 10 10 8 8 7 5 5 4 5 5 5 5 5 6 6 7 7 5 5 6 8 6 5 4 4 4 4 2 2 1 1
10 12 11 11 12 12 11 9 8 6 6 7 9 10 9 8 7 6 5 3 2 2 3 4 4 4 4 4 4 5 3 4 5 5 4 2 3 2 2 2 0 -0 -1 -2
10 10 10 11 12 12 11 11 8 7 9 10 9 7 8 8 7 6 4 3 2 1 1 3 3 2 1 2 3 2 3 3 3 3 2 0 1 0 -1 -1 -1 -2 -3 -3
10 10 10 10 11 10 11 11 10 10 10 10 8 8 7 7 5 3 3 2 1 2 -1 2 2 1 0 0 1 1 0 3 3 2 0 -0 -1 -1 -1 -2 -4 -5 -5 -5
Height
1463 1460 1451 1447 1446 1449 1443 1431 1420 1416 1414 1418 1420 1418 1413 1412 1411 1409 1410 1411 1414 1418 1424 1429 1432 1434 1434 1433 1435 1437 1439 1440 1441 1441 1442 1441 1440 1447 1453 1460 1469 1478 1486 1496
1456 1449 1440 1442 1442 1445 1445 1439 1430 1422 1419 1418 1420 1416 1412 1409 1406 1406 1405 1405 1407 1412 1420 1426 1428 1430 1430 1430 1432 1434 1437 1440 1440 1441 1439 1437 1432 1437 1448 1453 1466 1475 1483 1491
1445 1435 1437 1445 1443 1439 1436 1435 1432 1428 1422 1414 1415 1416 1409 1403 1401 1401 1401 1404 1405 1406 1413 1421 1424 1426 1427 1428 1429 1431 1434 1438 1440 1441 1442 1441 1436 1440 1449 1456 1464 1472 1479 1488
1436 1437 1436 1435 1437 1436 1434 1429 1430 1429 1428 1424 1410 1415 1397 1389 1387 1388 1394 1396 1399 1403 1408 1414 1420 1423 1423 1425 1427 1430 1431 1435 1439 1441 1444 1446 1444 1447 1452 1459 1465 1471 1479 1490
1431 1434 1434 1429 1430 1435 1431 1426 1429 1426 1423 1420 1414 1414 1398 1389 1390 1385 1384 1387 1389 1397 1402 1409 1416 1420 1420 1423 1424 1426 1429 1433 1436 1440 1444 1448 1450 1452 1457 1462 1467 1474 1483 1491
1429 1429 1432 1428 1425 1428 1431 1428 1428 1422 1420 1422 1408 1406 1394 1385 1380 1377 1378 1380 1386 1390 1399 1405 1412 1417 1419 1419 1421 1424 1426 1430 1433 1438 1442 1446 1450 1454 1458 1462 1468 1474 1480 1487
1423 1423 1424 1432 1431 1425 1429 1431 1437 1429 1420 1413 1393 1393 1389 1376 1373 1372 1375 1380 1386 1390 1396 1402 1407 1412 1417 1415 1418 1422 1424 1427 1431 1436 1440 1445 1448 1453 1457 1463 1469 1473 1478 1484
1419 1413 1409 1419 1421 1421 1423 1430 1431 1430 1413 1406 1381 1388 1380 1369 1375 1374 1375 1380 1381 1386 1392 1397 1402 1408 1413 1414 1417 1418 1422 1425 1429 1435 1439 1443 1448 1452 1457 1463 1468 1472 1477 1482
1420 1413 1407 1411 1417 1419 1415 1421 1414 1420 1410 1420 1404 1383 1372 1370 1374 1372 1373 1376 1377 1382 1388 1393 1398 1404 1409 1411 1413 1416 1419 1424 1427 1433 1439 1442 1446 1451 1455 1461 1467 1472 1476 1480
1428 1428 1406 1408 1411 1413 1412 1404 1416 1410 1429 1418 1392 1385 1381 1369 1374 1370 1370 1371 1374 1376 1383 1389 1394 1399 1406 1409 1412 1415 1418 1421 1425 1429 1435 1440 1445 1449 1453 1458 1463 1468 1473 1478
1434 1429 1412 1409 1408 1403 1412 1411 1405 1397 1398 1406 1408 1390 1365 1357 1368 1371 1367 1370 1370 1373 1379 1384 1390 1395 1402 1406 1409 1412 1417 1419 1423 1426 1430 1436 1442 1446 1450 1456 1460 1465 1470 1475
1434 1434 1424 1413 1398 1400 1399 1396 1400 1407 1407 1393 1393 1389 1368 1365 1367 1373 1372 1370 1372 1375 1375 1380 1385 1391 1396 1400 1404 1407 1411 1417 1421 1424 1427 1431 1438 1442 1446 1451 1456 1461 1466 1470
1441 1429 1423 1413 1404 1398 1403 1396 1389 1389 1394 1396 1398 1392 1364 1366 1369 1374 1379 1374 1372 1374 1375 1378 1382 1386 1391 1396 1399 1403 1406 1412 1417 1422 1425 1428 1433 1438 1442 1447 1451 1457 1461 1465
1449 1437 1424 1410 1408 1422 1406 1402 1397 1397 1403 1396 1388 1381 1369 1370 1372 1375 1376 1377 1375 1372 1373 1377 1380 1382 1387 1391 1395 1399 1401 1405 1410 1416 1420 1424 1429 1434 1440 1445 1448 1452 1455 1460
1442 1435 1427 1419 1409 1410 1414 1407 1404 1403 1398 1400 1391 1382 1376 1374 1374 1375 1376 1377 1375 1371 1371 1374 1377 1379 1382 1386 1390 1394 1398 1400 1405 1411 1416 1419 1424 1430 1436 1441 1445 1448 1450 1454
1431 1430 1425 1418 1412 1407 1404 1399 1397 1395 1394 1390 1387 1383 1380 1380 1381 1376 1376 1374 1372 1371 1369 1369 1373 1376 1379 1383 1387 1391 1395 1397 1400 1406 1411 1416 1420 1426 1430 1435 1439 1443 1447 1451
1441 1432 1424 1421 1410 1406 1401 1393 1388 1384 1382 1382 1385 1380 1375 1375 1373 1372 1368 1370 1368 1366 1367 1368 1369 1371 1375 1379 1384 1388 1392 1396 1398 1403 1409 1413 1416 1421 1427 1432 1436 1439 1442 1447
1435 1432 1432 1421 1415 1413 1387 1376 1375 1375 1373 1374 1373 1372 1371 1371 1370 1366 1363 1364 1363 1362 1363 1365 1368 1369 1373 1375 1379 1385 1390 1395 1396 1401 1406 1410 1414 1419 1423 1428 1429 1430 1434 1437
1428 1429 1427 1423 1409 1394 1384 1379 1378 1374 1372 1368 1365 1368 1372 1369 1362 1359 1357 1357 1357 1358 1362 1366 1368 1367 1369 1371 1376 1381 1385 1392 1396 1400 1404 1407 1411 1412 1414 1418 1421 1425 1428 1431
1415 1424 1426 1418 1415 1404 1382 1380 1386 1378 1384 1380 1382 1383 1383 1379 1369 1357 1359 1354 1357 1359 1362 1365 1365 1364 1365 1368 1374 1378 1382 1385 1387 1388 1395 1398 1401 1407 1411 1415 1419 1421 1424 1427
1406 1420 1419 1417 1414 1398 1385 1382 1387 1387 1389 1390 1388 1384 1384 1381 1379 1371 1366 1364 1363 1361 1361 1361 1362 1361 1361 1363 1366 1367 1371 1378 1383 1385 1393 1400 1401 1405 1409 1412 1416 1419 1422 1425
1404 1411 1413 1413 1416 1405 1387 1387 1393 1397 1394 1392 1387 1381 1380 1381 1377 1372 1369 1368 1366 1362 1360 1362 1361 1360 1359 1362 1367 1369 1374 1380 1383 1382 1392 1401 1400 1402 1407 1412 1415 1419 1422 1425
1403 1393 1396 1398 1392 1388 1390 1394 1398 1399 1395 1391 1387 1381 1377 1377 1375 1369 1370 1368 1365 1363 1362 1360 1360 1360 1357 1362 1370 1373 1375 1382 1382 1376 1392 1404 1403 1404 1406 1413 1417 1421 1425 1427
1389 1387 1388 1388 1385 1386 1389 1393 1395 1396 1395 1391 1385 1380 1375 1374 1370 1368 1367 1368 1368 1367 1365 1364 1364 1364 1363 1366 1373 1376 1377 1385 1385 1383 1394 1408 1405 1408 1409 1411 1419 1423 1428 1431
1392 1393 1389 1386 1384 1385 1386 1388 1391 1390 1388 1385 1381 1377 1372 1368 1367 1370 1367 1368 1368 1369 1369 1368 1367 1370 1370 1374 1377 1385 1384 1390 1388 1386 1402 1411 1409 1412 1412 1411 1419 1427 1430 1431
1392 1388 1386 1385 1387 1388 1385 1384 1386 1386 1383 1381 1380 1375 1374 1373 1369 1369 1368 1367 1368 1370 1374 1372 1372 1374 1376 1381 1385 1390 1391 1394 1395 1395 1407 1413 1415 1416 1418 1420 1424 1427 1432 1433
Wind_Speed
18 13 19 23 22 23 24 26 24 17 13 11 15 18 18 17 22 19 19 17 15 12 11 12 13 11 11 13 12 12 12 11 7 11 14 18 30 36 50 55 53 51 48 49
11 22 17 22 24 25 26 28 26 20 21 15 17 19 21 20 19 23 23 18 15 14 12 14 13 12 13 14 14 15 13 10 9 9 14 12 20 42 49 50 54 47 51 48
22 20 15 19 21 23 25 26 23 24 21 23 16 22 22 22 26 27 27 17 18 13 16 17 16 15 14 16 17 18 16 14 12 11 16 20 33 42 46 45 46 48 53 51
23 22 24 13 16 21 23 20 21 23 20 17 18 19 18 14 14 18 19 23 21 17 14 18 19 17 16 16 16 15 17 16 15 14 21 21 19 35 40 46 42 45 43 44
20 15 19 24 22 17 21 17 17 19 19 19 23 15 14 16 16 19 14 20 21 16 15 19 20 17 17 17 16 16 17 15 19 22 22 25 22 19 22 24 28 33 38 44
24 21 13 13 17 20 17 14 17 17 15 17 20 19 16 16 15 13 10 6 7 14 16 19 19 17 17 19 18 18 17 15 20 24 27 29 27 26 28 30 36 38 35 43
19 24 24 19 15 13 14 15 11 12 12 14 17 16 16 11 15 6 6 7 13 13 17 21 22 20 19 20 20 20 18 16 21 23 25 25 27 26 32 30 34 36 39 37
14 12 19 24 24 17 17 18 11 14 11 11 16 11 15 15 18 19 13 7 10 13 17 23 24 22 20 21 20 20 21 18 23 23 18 21 23 27 32 34 31 31 35 38
6 11 3 13 22 19 19 19 22 21 18 12 7 10 15 4 8 8 8 13 13 14 16 22 25 23 22 22 23 21 21 19 22 27 22 22 22 24 34 36 31 29 28 33
1 8 6 3 11 18 21 14 15 14 17 20 17 18 9 11 10 12 11 9 14 14 17 21 26 25 23 22 21 21 21 22 22 24 25 22 24 23 23 27 28 26 27 29
13 9 9 3 10 13 13 18 16 13 15 15 12 10 10 8 10 5 9 10 10 8 16 21 26 26 24 22 22 22 21 22 23 24 24 25 25 23 25 27 27 29 27 28
9 6 11 14 12 7 12 17 22 11 16 12 14 14 3 4 3 2 10 7 2 7 12 20 25 27 26 25 24 24 24 23 23 22 24 24 25 25 26 27 31 29 30 29
7 8 10 14 16 16 10 13 12 13 15 20 13 9 11 19 10 7 9 17 5 1 8 17 23 27 27 27 25 25 24 25 23 23 23 23 24 24 26 26 28 28 29 28
6 10 13 13 8 7 6 10 8 10 10 13 16 19 18 14 12 12 11 15 20 5 7 14 19 24 26 27 26 26 25 26 26 25 25 25 24 25 24 24 25 28 27 27
12 15 16 17 23 17 15 17 15 16 16 15 15 16 15 14 12 14 21 20 22 10 7 11 17 21 24 26 25 25 25 24 26 26 26 26 24 23 23 23 23 23 25 25
16 15 16 19 19 20 22 23 22 22 20 20 19 21 17 21 27 31 25 22 21 22 16 12 14 19 21 22 23 24 25 26 25 26 26 24 23 22 23 22 22 21 21 21
3 8 11 14 16 20 20 23 24 25 23 20 20 19 16 16 19 23 34 30 27 22 21 18 14 15 18 20 20 22 23 24 24 24 23 23 22 22 21 19 19 19 18 17
9 11 5 7 9 12 14 14 12 14 17 20 22 22 15 19 27 32 30 30 30 23 16 14 12 8 12 15 18 19 20 21 22 22 21 20 20 19 18 19 23 24 24 25
18 14 6 7 9 15 17 12 13 10 11 8 8 7 13 22 20 26 25 27 29 10 5 7 6 7 12 14 17 19 20 20 19 18 18 18 19 25 27 25 25 23 22 22
20 17 11 6 9 10 8 10 14 15 10 14 14 11 13 15 10 9 18 15 1 1 1 4 3 7 8 11 15 19 21 26 31 32 28 28 28 26 24 21 20 20 18 17
15 12 15 13 9 8 14 16 14 9 4 19 21 18 15 11 12 31 13 10 4 2 4 5 8 12 16 21 27 33 31 31 30 29 24 22 23 22 21 20 19 17 16 16
7 9 7 10 5 9 4 8 5 9 15 19 25 25 15 16 24 12 9 6 1 4 6 7 10 14 15 15 20 26 30 29 30 30 27 26 27 27 25 23 23 20 19 18
5 8 4 7 4 3 11 5 3 9 17 25 27 30 12 21 25 2 1 0 3 6 11 15 21 24 25 25 28 35 35 34 35 37 33 29 30 29 26 22 22 21 18 16
9 7 4 6 6 6 11 3 4 14 23 26 26 26 15 23 15 5 5 4 5 8 14 19 23 26 30 32 34 37 37 35 36 39 34 28 28 27 26 25 23 21 17 16
6 6 8 9 8 11 5 4 6 14 19 22 16 25 19 22 10 7 9 10 11 12 17 24 28 32 35 34 35 32 33 32 33 35 31 27 27 26 29 27 22 18 17 14
13 11 9 7 11 10 13 14 13 17 18 13 13 12 5 4 3 7 11 13 15 18 20 29 33 35 33 31 31 29 27 28 30 32 29 26 26 25 23 23 24 20 15 10
Wind_Direction
197 220 224 236 229 251 265 269 262 283 256 264 255 264 269 264 264 260 249 257 251 238 222 206 196 195 189 201 191 186 194 222 215 253 269 245 233 220 203 198 203 199 197 187
233 240 239 244 239 238 247 259 263 267 275 268 252 263 274 266 263 258 264 268 243 242 201 199 196 191 190 188 186 186 195 210 205 218 227 185 197 189 192 182 198 200 196 187
237 249 221 233 262 245 248 251 260 265 266 272 270 264 264 260 252 253 256 259 265 243 203 203 200 196 190 189 189 186 197 202 197 204 191 163 142 169 181 179 182 196 199 184
259 253 269 224 235 257 254 252 261 263 264 262 252 265 270 260 264 229 232 231 233 241 226 200 199 197 192 189 187 187 196 202 197 197 186 176 148 146 160 178 188 196 183 178
243 231 252 243 227 248 265 275 258 263 254 262 256 261 257 258 257 251 242 245 244 217 211 198 198 198 188 187 184 185 198 199 190 187 179 185 181 184 181 178 177 165 177 188
251 253 257 268 261 238 255 265 252 256 249 249 247 252 253 251 237 226 241 224 268 196 198 194 192 192 187 185 181 187 200 197 190 189 188 187 196 198 194 190 182 184 181 191
235 241 242 248 251 231 247 233 248 229 229 243 242 229 241 253 252 231 221 236 189 191 196 191 188 188 190 181 184 184 189 200 193 191 195 202 210 209 196 190 191 191 191 193
271 254 215 219 227 224 213 214 250 238 244 279 271 232 247 233 243 258 238 231 233 196 195 194 192 190 192 182 186 179 182 185 187 186 187 192 192 200 193 187 192 196 201 204
316 254 54 220 223 229 226 219 225 256 279 264 250 255 270 173 240 248 211 219 212 203 199 197 192 192 192 190 186 183 179 182 183 182 186 194 188 189 202 205 203 200 206 211
337 279 235 121 221 223 239 251 220 226 247 251 257 253 235 202 207 238 232 219 230 203 201 198 194 192 194 194 191 189 183 182 185 191 191 191 189 196 194 199 207 209 209 206
299 263 250 252 228 218 210 237 253 249 231 242 255 271 344 201 160 300 312 320 245 216 202 200 195 191 192 191 192 191 191 187 189 190 193 195 197 199 197 197 204 207 205 205
297 295 262 256 275 311 310 226 225 237 241 246 248 254 328 320 104 236 311 312 335 269 216 202 195 189 192 193 192 195 193 195 193 193 192 196 199 201 204 205 208 210 213 212
21 240 256 242 240 232 246 241 249 236 248 256 259 246 274 220 268 305 308 304 318 219 197 194 193 193 195 196 197 198 198 197 197 196 197 198 202 206 208 210 210 215 217 220
319 261 274 270 2 332 258 247 260 263 250 248 245 258 255 274 281 290 287 289 299 210 196 198 197 199 201 202 200 200 203 201 199 200 201 202 205 208 212 213 214 214 216 219
237 252 254 259 281 281 268 273 263 258 260 256 265 281 291 305 301 284 279 282 290 281 234 212 205 201 203 203 204 204 204 202 201 202 204 205 205 209 211 215 217 218 219 221
239 256 264 263 265 276 279 270 260 257 259 263 263 263 274 274 274 281 278 281 276 273 268 228 209 210 205 205 205 207 204 202 198 201 204 202 201 205 209 213 216 220 222 227
318 243 244 250 247 254 254 252 261 265 260 252 250 257 273 290 278 254 268 269 272 275 259 248 255 210 209 206 203 205 203 200 197 201 203 201 201 204 208 211 214 217 222 221
242 245 253 266 290 242 250 264 243 274 266 259 258 262 266 278 269 261 252 256 257 253 252 252 253 242 205 196 198 194 196 198 191 193 196 196 196 197 197 200 205 209 213 217
225 225 224 223 237 266 296 284 299 286 281 291 292 310 339 322 308 251 254 243 248 262 311 275 266 219 200 186 189 186 183 188 183 181 184 183 181 187 192 195 200 205 211 215
206 211 228 223 245 240 265 43 5 305 250 14 9 352 320 319 301 267 296 278 315 92 204 224 185 151 163 161 176 172 170 179 181 178 177 178 180 185 185 191 196 197 198 199
185 196 214 228 244 267 277 302 343 256 5 339 332 326 320 308 300 300 326 336 3 98 120 149 139 138 157 168 174 174 175 176 178 178 183 184 176 175 176 174 165 163 160 151
167 192 194 231 248 254 290 309 289 344 331 324 325 318 316 301 304 309 323 312 338 102 122 128 139 164 168 182 185 170 161 157 157 151 152 152 147 143 140 142 134 131 132 129
209 218 194 202 219 254 308 32 15 330 325 310 319 321 309 313 303 345 314 51 168 179 153 149 148 146 145 148 163 152 144 148 146 140 141 138 134 131 130 127 126 125 123 121
272 258 252 291 293 269 272 201 347 311 278 284 306 318 313 294 276 223 156 116 113 129 142 145 148 142 133 140 141 139 137 139 137 129 129 131 129 126 125 126 124 119 114 112
292 320 295 271 279 315 312 248 234 270 277 292 320 319 311 306 190 184 154 159 150 135 136 144 138 130 123 129 130 130 131 135 127 123 126 126 123 125 125 120 117 120 117 117
273 270 269 281 305 291 307 325 315 305 294 320 321 310 340 323 163 199 177 162 156 146 136 139 134 128 121 125 126 124 124 130 127 122 125 123 120 117 112 115 117 112 108 107